Time,TemperatureF,DewpointF,PressureIn,WindDirection,WindDirectionDegrees,WindSpeedMPH,WindSpeedGustMPH,Humidity,HourlyPrecipIn,Conditions,Clouds,dailyrainin,SoftwareType,DateUTC
2013-09-21 00:05:00,52.1,40.0,25.26,NNW,333,1.0,2.0,64,0.00,,,0.00,weatherlink.com 1.10,2013-09-21 06:05:00,
2013-09-21 00:20:00,51.8,41.0,25.26,WSW,243,3.0,3.0,68,0.00,,,0.00,weatherlink.com 1.10,2013-09-21 06:20:00,
2013-09-21 00:35:00,53.5,42.0,25.26,SW,225,1.0,5.0,65,0.00,,,0.00,weatherlink.com 1.10,2013-09-21 06:35:00,
2013-09-21 00:50:00,53.5,43.0,25.26,South,187,4.0,7.0,67,0.00,,,0.00,weatherlink.com 1.10,2013-09-21 06:50:00,
2013-09-21 01:05:00,53.8,43.0,25.26,South,190,3.0,6.0,66,0.00,,,0.00,weatherlink.com 1.10,2013-09-21 07:05:00,
2013-09-21 01:20:00,54.6,44.0,25.26,SSW,204,7.0,9.0,68,0.00,,,0.00,weatherlink.com 1.10,2013-09-21 07:20:00,
2013-09-21 01:35:00,54.8,44.0,25.25,SSW,198,5.0,10.0,67,0.00,,,0.00,weatherlink.com 1.10,2013-09-21 07:35:00,
2013-09-21 01:50:00,54.5,44.0,25.25,ESE,120,7.0,8.0,67,0.00,,,0.00,weatherlink.com 1.10,2013-09-21 07:50:00,
2013-09-21 02:05:00,53.6,43.0,25.24,SSW,201,3.0,6.0,68,0.00,,,0.00,weatherlink.com 1.10,2013-09-21 08:05:00,
2013-09-21 02:35:00,52.7,43.0,25.24,West,262,3.0,4.0,70,0.00,,,0.00,weatherlink.com 1.10,2013-09-21 08:35:00,
2013-09-21 02:50:00,51.3,43.0,25.24,West,263,2.0,5.0,73,0.00,,,0.00,weatherlink.com 1.10,2013-09-21 08:50:00,
2013-09-21 03:05:00,50.7,43.0,25.24,West,270,4.0,9.0,75,0.00,,,0.00,weatherlink.com 1.10,2013-09-21 09:05:00,
2013-09-21 03:20:00,50.1,42.0,25.24,West,277,3.0,8.0,75,0.00,,,0.00,weatherlink.com 1.10,2013-09-21 09:20:00,
2013-09-21 03:35:00,49.4,42.0,25.23,WSW,257,2.0,4.0,76,0.00,,,0.00,weatherlink.com 1.10,2013-09-21 09:35:00,
2013-09-21 03:50:00,49.5,43.0,25.23,WSW,257,3.0,6.0,77,0.00,,,0.00,weatherlink.com 1.10,2013-09-21 09:50:00,
2013-09-21 04:05:00,49.3,42.0,25.23,WSW,253,3.0,5.0,77,0.00,,,0.00,weatherlink.com 1.10,2013-09-21 10:05:00,
2013-09-21 04:20:00,48.7,42.0,25.24,West,267,3.0,5.0,78,0.00,,,0.00,weatherlink.com 1.10,2013-09-21 10:20:00,
2013-09-21 04:35:00,47.1,42.0,25.24,WSW,248,3.0,6.0,81,0.00,,,0.00,weatherlink.com 1.10,2013-09-21 10:35:00,
2013-09-21 04:50:00,46.4,42.0,25.23,WSW,253,2.0,3.0,83,0.00,,,0.00,weatherlink.com 1.10,2013-09-21 10:50:00,
2013-09-21 05:05:00,46.3,41.0,25.23,SW,235,0.0,2.0,83,0.00,,,0.00,weatherlink.com 1.10,2013-09-21 11:05:00,
2013-09-21 05:20:00,46.2,42.0,25.23,SW,228,0.0,1.0,84,0.00,,,0.00,weatherlink.com 1.10,2013-09-21 11:20:00,
2013-09-21 05:35:00,46.5,42.0,25.23,WSW,240,1.0,1.0,84,0.00,,,0.00,weatherlink.com 1.10,2013-09-21 11:35:00,
2013-09-21 05:51:00,45.8,41.0,25.23,WSW,239,0.0,3.0,84,0.00,,,0.00,weatherlink.com 1.10,2013-09-21 11:51:00,
2013-09-21 06:06:00,46.1,42.0,25.22,WSW,237,3.0,3.0,85,0.00,,,0.00,weatherlink.com 1.10,2013-09-21 12:06:00,
2013-09-21 06:21:00,46.3,42.0,25.22,WSW,243,0.0,1.0,84,0.00,,,0.00,weatherlink.com 1.10,2013-09-21 12:21:00,
2013-09-21 06:36:00,46.3,42.0,25.22,WSW,253,1.0,2.0,84,0.00,,,0.00,weatherlink.com 1.10,2013-09-21 12:36:00,
2013-09-21 06:51:00,46.3,42.0,25.22,West,272,2.0,4.0,84,0.00,,,0.00,weatherlink.com 1.10,2013-09-21 12:51:00,
2013-09-21 07:06:00,46.9,42.0,25.22,WSW,245,2.0,4.0,83,0.00,,,0.00,weatherlink.com 1.10,2013-09-21 13:06:00,
2013-09-21 07:21:00,47.5,42.0,25.23,West,279,4.0,5.0,82,0.00,,,0.00,weatherlink.com 1.10,2013-09-21 13:21:00,
2013-09-21 07:36:00,47.8,42.0,25.23,NW,321,5.0,9.0,80,0.00,,,0.00,weatherlink.com 1.10,2013-09-21 13:36:00,
2013-09-21 07:51:00,49.9,43.0,25.23,WNW,289,5.0,7.0,77,0.00,,,0.00,weatherlink.com 1.10,2013-09-21 13:51:00,
2013-09-21 08:06:00,51.7,43.0,25.23,West,267,4.0,9.0,73,0.00,,,0.00,weatherlink.com 1.10,2013-09-21 14:06:00,
2013-09-21 08:21:00,53.9,43.0,25.23,WNW,291,6.0,10.0,68,0.00,,,0.00,weatherlink.com 1.10,2013-09-21 14:21:00,
2013-09-21 08:51:00,58.7,46.0,25.22,WSW,256,5.0,10.0,62,0.00,,,0.00,weatherlink.com 1.10,2013-09-21 14:51:00,
2013-09-21 09:06:00,61.6,47.0,25.22,WSW,246,6.0,7.0,59,0.00,,,0.00,weatherlink.com 1.10,2013-09-21 15:06:00,
2013-09-21 09:21:00,63.8,48.0,25.22,WSW,257,3.0,9.0,57,0.00,,,0.00,weatherlink.com 1.10,2013-09-21 15:21:00,
2013-09-21 09:36:00,67.1,49.0,25.22,WNW,297,2.0,5.0,52,0.00,,,0.00,weatherlink.com 1.10,2013-09-21 15:36:00,
2013-09-21 09:51:00,68.7,49.0,25.22,South,187,6.0,8.0,50,0.00,,,0.00,weatherlink.com 1.10,2013-09-21 15:51:00,
2013-09-21 10:06:00,71.2,49.0,25.22,SW,231,4.0,11.0,46,0.00,,,0.00,weatherlink.com 1.10,2013-09-21 16:06:00,
2013-09-21 10:21:00,72.7,50.0,25.21,SW,235,5.0,8.0,45,0.00,,,0.00,weatherlink.com 1.10,2013-09-21 16:21:00,
2013-09-21 10:37:00,75.0,50.0,25.21,SE,143,5.0,9.0,42,0.00,,,0.00,weatherlink.com 1.10,2013-09-21 16:37:00,
2013-09-21 10:51:00,77.4,50.0,25.20,WSW,245,5.0,9.0,38,0.00,,,0.00,weatherlink.com 1.10,2013-09-21 16:51:00,
2013-09-21 11:06:00,78.9,48.0,25.20,SSW,205,6.0,8.0,34,0.00,,,0.00,weatherlink.com 1.10,2013-09-21 17:06:00,
2013-09-21 11:21:00,80.4,46.0,25.19,SW,220,2.0,10.0,30,0.00,,,0.00,weatherlink.com 1.10,2013-09-21 17:21:00,
2013-09-21 11:36:00,81.0,38.0,25.19,West,276,6.0,11.0,21,0.00,,,0.00,weatherlink.com 1.10,2013-09-21 17:36:00,
2013-09-21 11:51:00,81.5,37.0,25.18,WSW,243,9.0,15.0,20,0.00,,,0.00,weatherlink.com 1.10,2013-09-21 17:51:00,
2013-09-21 12:06:00,82.6,35.0,25.18,West,272,6.0,14.0,18,0.00,,,0.00,weatherlink.com 1.10,2013-09-21 18:06:00,
2013-09-21 12:21:00,83.6,36.0,25.18,WSW,252,5.0,12.0,18,0.00,,,0.00,weatherlink.com 1.10,2013-09-21 18:21:00,
2013-09-21 12:36:00,83.9,37.0,25.17,NW,312,7.0,13.0,19,0.00,,,0.00,weatherlink.com 1.10,2013-09-21 18:36:00,
2013-09-21 12:51:00,85.0,36.0,25.16,WSW,240,17.0,20.0,17,0.00,,,0.00,weatherlink.com 1.10,2013-09-21 18:51:00,
2013-09-21 13:06:00,86.1,33.0,25.16,NW,304,10.0,16.0,15,0.00,,,0.00,weatherlink.com 1.10,2013-09-21 19:06:00,
2013-09-21 13:21:00,86.0,33.0,25.15,West,276,2.0,14.0,15,0.00,,,0.00,weatherlink.com 1.10,2013-09-21 19:21:00,
2013-09-21 13:36:00,85.0,32.0,25.15,West,271,6.0,16.0,15,0.00,,,0.00,weatherlink.com 1.10,2013-09-21 19:36:00,
2013-09-21 13:51:00,86.5,32.0,25.14,NW,309,7.0,11.0,14,0.00,,,0.00,weatherlink.com 1.10,2013-09-21 19:51:00,
2013-09-21 14:07:00,87.6,35.0,25.13,North,360,3.0,4.0,15,0.00,,,0.00,weatherlink.com 1.10,2013-09-21 20:07:00,
2013-09-21 14:22:00,85.6,36.0,25.13,SW,231,4.0,11.0,17,0.00,,,0.00,weatherlink.com 1.10,2013-09-21 20:22:00,
2013-09-21 14:37:00,85.0,37.0,25.13,SSW,195,3.0,11.0,18,0.00,,,0.00,weatherlink.com 1.10,2013-09-21 20:37:00,
2013-09-21 14:52:00,85.2,36.0,25.12,WSW,252,1.0,12.0,17,0.00,,,0.00,weatherlink.com 1.10,2013-09-21 20:52:00,
2013-09-21 15:07:00,86.3,35.0,25.12,SW,225,6.0,7.0,16,0.00,,,0.00,weatherlink.com 1.10,2013-09-21 21:07:00,
2013-09-21 15:22:00,85.4,37.0,25.12,SW,226,8.0,12.0,18,0.00,,,0.00,weatherlink.com 1.10,2013-09-21 21:22:00,
2013-09-21 15:37:00,85.9,36.0,25.11,SSW,195,2.0,5.0,17,0.00,,,0.00,weatherlink.com 1.10,2013-09-21 21:37:00,
2013-09-21 15:52:00,85.4,36.0,25.11,WNW,284,0.0,11.0,17,0.00,,,0.00,weatherlink.com 1.10,2013-09-21 21:52:00,
2013-09-21 16:07:00,85.2,40.0,25.10,SE,143,7.0,10.0,20,0.00,,,0.00,weatherlink.com 1.10,2013-09-21 22:07:00,
2013-09-21 16:22:00,84.7,41.0,25.10,SE,128,9.0,15.0,21,0.00,,,0.00,weatherlink.com 1.10,2013-09-21 22:22:00,
2013-09-21 16:37:00,84.1,41.0,25.10,SW,215,6.0,12.0,22,0.00,,,0.00,weatherlink.com 1.10,2013-09-21 22:37:00,
2013-09-21 16:52:00,83.7,41.0,25.10,SSE,167,7.0,11.0,22,0.00,,,0.00,weatherlink.com 1.10,2013-09-21 22:52:00,
2013-09-21 17:07:00,83.4,41.0,25.10,SSW,201,8.0,11.0,22,0.00,,,0.00,weatherlink.com 1.10,2013-09-21 23:07:00,
2013-09-21 17:22:00,82.7,41.0,25.10,SSW,208,11.0,15.0,23,0.00,,,0.00,weatherlink.com 1.10,2013-09-21 23:22:00,
2013-09-21 17:37:00,82.3,42.0,25.09,South,172,5.0,12.0,24,0.00,,,0.00,weatherlink.com 1.10,2013-09-21 23:37:00,
2013-09-21 17:52:00,81.7,42.0,25.09,SSW,198,7.0,13.0,24,0.00,,,0.00,weatherlink.com 1.10,2013-09-21 23:52:00,
2013-09-21 18:07:00,80.9,43.0,25.09,SSW,201,4.0,11.0,26,0.00,,,0.00,weatherlink.com 1.10,2013-09-22 00:07:00,
2013-09-21 18:22:00,79.3,43.0,25.09,SSW,201,3.0,8.0,28,0.00,,,0.00,weatherlink.com 1.10,2013-09-22 00:22:00,
2013-09-21 18:37:00,76.5,44.0,25.09,SSE,156,4.0,9.0,32,0.00,,,0.00,weatherlink.com 1.10,2013-09-22 00:37:00,
2013-09-21 18:52:00,74.1,44.0,25.08,SSW,203,5.0,8.0,34,0.00,,,0.00,weatherlink.com 1.10,2013-09-22 00:52:00,
2013-09-21 19:07:00,72.1,44.0,25.08,ESE,117,5.0,7.0,37,0.00,,,0.00,weatherlink.com 1.10,2013-09-22 01:07:00,
2013-09-21 19:22:00,70.9,45.0,25.08,SSW,211,6.0,11.0,39,0.00,,,0.00,weatherlink.com 1.10,2013-09-22 01:22:00,
2013-09-21 19:37:00,69.9,46.0,25.09,SW,233,8.0,10.0,42,0.00,,,0.00,weatherlink.com 1.10,2013-09-22 01:37:00,
2013-09-21 19:52:00,68.8,47.0,25.09,SE,136,4.0,9.0,46,0.00,,,0.00,weatherlink.com 1.10,2013-09-22 01:52:00,
2013-09-21 20:07:00,67.7,47.0,25.09,SSW,204,5.0,8.0,47,0.00,,,0.00,weatherlink.com 1.10,2013-09-22 02:07:00,
2013-09-21 20:22:00,67.1,47.0,25.09,SSW,203,5.0,9.0,48,0.00,,,0.00,weatherlink.com 1.10,2013-09-22 02:22:00,
2013-09-21 20:38:00,66.4,46.0,25.09,SSW,204,7.0,10.0,48,0.00,,,0.00,weatherlink.com 1.10,2013-09-22 02:38:00,
2013-09-21 20:53:00,65.4,47.0,25.09,SE,129,6.0,10.0,51,0.00,,,0.00,weatherlink.com 1.10,2013-09-22 02:53:00,
2013-09-21 21:08:00,65.0,47.0,25.09,South,190,6.0,10.0,53,0.00,,,0.00,weatherlink.com 1.10,2013-09-22 03:08:00,
2013-09-21 21:23:00,64.6,48.0,25.09,SSE,163,4.0,9.0,55,0.00,,,0.00,weatherlink.com 1.10,2013-09-22 03:23:00,
2013-09-21 21:38:00,64.0,49.0,25.09,SE,131,8.0,8.0,58,0.00,,,0.00,weatherlink.com 1.10,2013-09-22 03:38:00,
2013-09-21 21:53:00,63.6,50.0,25.09,ESE,122,5.0,7.0,61,0.00,,,0.00,weatherlink.com 1.10,2013-09-22 03:53:00,
2013-09-21 22:08:00,64.3,50.0,25.09,SSW,210,6.0,9.0,61,0.00,,,0.00,weatherlink.com 1.10,2013-09-22 04:08:00,
2013-09-21 22:23:00,64.3,51.0,25.09,South,169,5.0,10.0,62,0.00,,,0.00,weatherlink.com 1.10,2013-09-22 04:23:00,
2013-09-21 22:38:00,63.8,51.0,25.09,SW,222,6.0,13.0,63,0.00,,,0.00,weatherlink.com 1.10,2013-09-22 04:38:00,
2013-09-21 22:53:00,63.0,51.0,25.08,South,190,5.0,9.0,65,0.00,,,0.00,weatherlink.com 1.10,2013-09-22 04:53:00,
2013-09-21 23:08:00,62.6,51.0,25.08,SSE,163,5.0,8.0,66,0.00,,,0.00,weatherlink.com 1.10,2013-09-22 05:08:00,
2013-09-21 23:23:00,62.3,51.0,25.08,SE,131,5.0,9.0,67,0.00,,,0.00,weatherlink.com 1.10,2013-09-22 05:23:00,
2013-09-21 23:38:00,62.0,52.0,25.07,SSE,162,6.0,9.0,69,0.00,,,0.00,weatherlink.com 1.10,2013-09-22 05:38:00,
2013-09-21 23:53:00,62.2,51.0,25.07,SSW,205,4.0,11.0,68,0.00,,,0.00,weatherlink.com 1.10,2013-09-22 05:53:00,